FW1241 Weather Reports


Display with metric or nautical units.
time (UTC)temp
F
wind
direction
speed
MPH
gust
MPH
rain 1hr
in
rain 24hr
in
rain mn
in
humidity
%
barometer
mb
20260906122105 59 125 1.0 2.0 0.00 0.00 0.00 84 1013.1
20260906121605 59 118 1.0 1.0 0.00 0.00 0.00 84 1013.2
20260906115604 59 137 1.0 2.0 0.00 0.00 0.00 83 1013.1
20260906115105 59 121 1.0 2.0 0.00 0.00 0.00 84 1013.1
20260906114605 59 124 1.0 1.0 0.00 0.00 0.00 83 1013.1
20260906114105 60 119 1.0 1.0 0.00 0.00 0.00 83 1013.1
20260906113605 60 121 1.0 2.0 0.00 0.00 0.00 83 1013.0
20260906113104 60 114 2.0 2.0 0.00 0.00 0.00 83 1013.0
20260906112605 60 124 1.0 2.0 0.00 0.00 0.00 82 1013.0
20260906111604 61 133 1.0 2.0 0.00 0.00 0.00 82 1012.9
20260906111105 61 121 1.0 2.0 0.00 0.00 0.00 81 1012.8
20260906110105 61 110 0.0 1.0 0.00 0.00 0.00 81 1012.8
20260906105105 61 123 1.0 1.0 0.00 0.00 0.00 80 1012.7
20260906104104 62 122 1.0 2.0 0.00 0.00 0.00 81 1012.7
20260906103605 62 46 1.0 2.0 0.00 0.00 0.00 81 1012.7
20260906102105 62 204 1.0 2.0 0.00 0.00 0.00 79 1012.6
20260906100604 63 203 2.0 2.0 0.00 0.00 0.00 79 1012.5
20260906100105 63 203 2.0 2.0 0.00 0.00 0.00 79 1012.5
20260906095605 63 189 2.0 2.0 0.00 0.00 0.00 78 1012.4
20260906095105 63 183 1.0 2.0 0.00 0.00 0.00 79 1012.5
20260906094105 64 209 1.0 2.0 0.00 0.00 0.00 78 1012.5
20260906093605 64 198 2.0 2.0 0.00 0.00 0.00 76 1012.5
20260906092105 65 204 2.0 2.0 0.00 0.00 0.00 77 1012.4
20260906091605 65 208 2.0 2.0 0.00 0.00 0.00 73 1012.4
20260906091104 65 207 2.0 2.0 0.00 0.00 0.00 72 1012.4
20260906085605 65 50 2.0 5.0 0.00 0.00 0.00 73 1012.4
20260906084604 64 182 1.0 3.0 0.00 0.00 0.00 75 1012.5
20260906082605 65 155 2.0 2.0 0.00 0.00 0.00 77 1012.5
20260906082106 65 201 1.0 2.0 0.00 0.00 0.00 76 1012.4
20260906081605 65 202 2.0 3.0 0.00 0.00 0.00 77 1012.4
20260906074605 66 131 1.0 2.0 0.00 0.00 0.00 74 1012.2
20260906074105 66 67 1.0 3.0 0.00 0.00 0.00 74 1012.2
20260906073605 65 151 1.0 2.0 0.00 0.00 0.00 76 1012.1
20260906073105 65 129 1.0 2.0 0.00 0.00 0.00 75 1012.1
20260906072604 66 200 1.0 2.0 0.00 0.00 0.00 76 1012.1
20260906072105 66 108 1.0 2.0 0.00 0.00 0.00 75 1012.2
20260906071605 66 174 1.0 2.0 0.00 0.00 0.00 76 1012.2
20260906070105 67 72 2.0 3.0 0.00 0.00 0.00 76 1012.1
20260906065604 67 163 1.0 2.0 0.00 0.00 0.00 75 1011.8
20260906065104 67 1 1.0 2.0 0.00 0.00 0.00 74 1011.8
20260906064604 67 146 1.0 2.0 0.00 0.00 0.00 73 1011.8
20260906062605 68 117 2.0 2.0 0.00 0.00 0.00 71 1011.9
20260906062104 68 155 2.0 2.0 0.00 0.00 0.00 70 1011.8
20260906055604 69 289 1.0 2.0 0.00 0.00 0.00 71 1011.6
20260906053605 70 286 1.0 2.0 0.00 0.00 0.00 68 1011.7
20260906052105 71 181 1.0 1.0 0.00 0.00 0.00 67 1011.7
20260906051605 71 189 1.0 1.0 0.00 0.00 0.00 66 1011.7
20260906050604 72 187 1.0 2.0 0.00 0.00 0.00 65 1011.8
20260906050105 72 206 1.0 1.0 0.00 0.00 0.00 64 1011.7
20260906045605 72 172 1.0 1.0 0.00 0.00 0.00 64 1011.7
20260906044605 73 270 1.0 2.0 0.00 0.00 0.00 59 1011.7
20260906044104 73 143 2.0 2.0 0.00 0.00 0.00 59 1011.7
20260906043104 73 46 1.0 2.0 0.00 0.00 0.00 59 1011.6
20260906041604 74 60 1.0 2.0 0.00 0.00 0.00 59 1011.5
20260906041104 74 337 1.0 2.0 0.00 0.00 0.00 57 1011.4
20260906035604 74 337 0.0 1.0 0.00 0.00 0.00 57 1011.2
20260906035105 75 338 0.0 0.0 0.00 0.00 0.00 55 1011.1
20260906034604 75 338 0.0 0.0 0.00 0.00 0.00 56 1011.1
20260906033604 76 329 0.0 1.0 0.00 0.00 0.00 55 1010.9
20260906030605 78 202 1.0 1.0 0.00 0.00 0.00 52 1010.6
20260906024604 79 206 1.0 2.0 0.00 0.00 0.00 49 1010.4
20260906023605 80 229 1.0 2.0 0.00 0.00 0.00 47 1010.3
20260906023105 80 206 1.0 2.0 0.00 0.00 0.00 47 1010.3
20260906022105 81 241 1.0 1.0 0.00 0.00 0.00 46 1010.4
20260906015104 84 274 1.0 2.0 0.00 0.00 0.00 39 1010.5
20260906014104 85 254 1.0 2.0 0.00 0.00 0.00 35 1010.6
20260906013605 85 233 1.0 2.0 0.00 0.00 0.00 34 1010.6
20260906013104 86 197 0.0 2.0 0.00 0.00 0.00 33 1010.6
20260906012605 87 294 1.0 2.0 0.00 0.00 0.00 34 1010.6
20260906011605 89 171 1.0 2.0 0.00 0.00 0.00 33 1010.6
20260906011105 90 251 1.0 2.0 0.00 0.00 0.00 32 1010.7
20260906010605 90 316 1.0 2.0 0.00 0.00 0.00 31 1010.7
20260906010105 91 186 0.0 1.0 0.00 0.00 0.00 29 1010.7
20260906004604 91 153 0.0 2.0 0.00 0.00 0.00 30 1010.7
20260906004105 91 148 1.0 2.0 0.00 0.00 0.00 30 1010.7
20260906003605 92 151 1.0 2.0 0.00 0.00 0.00 30 1010.7
20260906002105 92 102 1.0 2.0 0.00 0.00 0.00 30 1010.7
20260906001105 90 67 1.0 3.0 0.00 0.00 0.00 30 1010.7
20260906000605 90 60 1.0 2.0 0.00 0.00 0.00 30 1010.8
20260906000105 91 157 1.0 2.0 0.00 0.00 0.00 30 1010.8
20260905235605 91 355 1.0 2.0 0.00 0.00 0.00 30 1010.8
20260905235105 91 18 1.0 2.0 0.00 0.00 0.00 31 1010.8
20260905234104 90 42 1.0 2.0 0.00 0.00 0.00 29 1010.9
20260905232104 90 188 2.0 2.0 0.00 0.00 0.00 34 1011.1
20260905231104 90 115 1.0 3.0 0.00 0.00 0.00 33 1011.2
20260905225605 90 9 1.0 2.0 0.00 0.00 0.00 34 1011.3
20260905224605 89 8 1.0 3.0 0.00 0.00 0.00 35 1011.4
20260905223605 88 312 1.0 3.0 0.00 0.00 0.00 37 1011.4
20260905223105 88 68 1.0 3.0 0.00 0.00 0.00 36 1011.5
20260905222105 88 339 1.0 2.0 0.00 0.00 0.00 37 1011.6
20260905221105 88 7 2.0 2.0 0.00 0.00 0.00 37 1011.7
20260905220105 87 18 2.0 3.0 0.00 0.00 0.00 38 1011.9
20260905215105 87 1 2.0 3.0 0.00 0.00 0.00 40 1012.0
20260905214604 87 350 1.0 3.0 0.00 0.00 0.00 39 1012.1
20260905214105 87 141 1.0 3.0 0.00 0.00 0.00 39 1012.3
20260905213104 87 354 1.0 3.0 0.00 0.00 0.00 40 1012.4
20260905212105 86 359 1.0 3.0 0.00 0.00 0.00 42 1012.5
20260905211605 86 325 1.0 2.0 0.00 0.00 0.00 43 1012.6
20260905210104 85 3 2.0 3.0 0.00 0.00 0.00 42 1012.7
20260905205606 84 335 1.0 2.0 0.00 0.00 0.00 44 1013.0
20260905203104 84 126 2.0 3.0 0.00 0.00 0.00 44 1013.0
20260905202104 83 187 2.0 3.0 0.00 0.00 0.00 44 1013.0
20260905201104 83 173 2.0 6.0 0.00 0.00 0.00 45 1013.1
20260905200104 83 12 1.0 3.0 0.00 0.00 0.00 48 1013.2
20260905195104 82 8 1.0 2.0 0.00 0.00 0.00 48 1013.4
20260905194604 82 184 2.0 3.0 0.00 0.00 0.00 47 1013.4
20260905194103 81 41 2.0 5.0 0.00 0.00 0.00 48 1013.4
20260905193604 81 199 2.0 5.0 0.00 0.00 0.00 48 1013.5
20260905192103 80 350 2.0 5.0 0.00 0.00 0.00 48 1013.7
20260905191103 80 35 2.0 5.0 0.00 0.00 0.00 48 1013.8
20260905185603 79 83 2.0 3.0 0.00 0.00 0.00 49 1013.9
20260905184604 78 169 2.0 5.0 0.00 0.00 0.00 51 1014.1
20260905183603 78 276 2.0 5.0 0.00 0.00 0.00 50 1014.2
20260905183104 78 290 2.0 3.0 0.00 0.00 0.00 50 1014.2
20260905182604 77 49 2.0 5.0 0.00 0.00 0.00 52 1014.3
20260905180104 76 175 2.0 6.0 0.00 0.00 0.00 54 1014.4
20260905174604 75 182 3.0 8.0 0.00 0.00 0.00 54 1014.4
20260905173604 73 144 3.0 8.0 0.00 0.00 0.00 57 1014.4
20260905173104 73 145 4.0 8.0 0.00 0.00 0.00 57 1014.5
20260905172604 73 189 3.0 8.0 0.00 0.00 0.00 57 1014.5
20260905171604 73 181 5.0 10.0 0.00 0.00 0.00 57 1014.5
20260905171104 73 158 3.0 7.0 0.00 0.00 0.00 58 1014.6
20260905170104 71 153 2.0 5.0 0.00 0.00 0.00 59 1014.6
20260905165604 71 182 3.0 8.0 0.00 0.00 0.00 61 1014.6
20260905165104 71 140 5.0 9.0 0.00 0.00 0.00 61 1014.6
20260905164104 71 192 4.0 8.0 0.00 0.00 0.00 60 1014.6
20260905163603 71 124 2.0 6.0 0.00 0.00 0.00 61 1014.6
20260905163104 71 191 3.0 8.0 0.00 0.00 0.00 61 1014.5
20260905162604 70 132 2.0 5.0 0.00 0.00 0.00 62 1014.4
20260905162104 69 169 2.0 6.0 0.00 0.00 0.00 62 1014.4
20260905161604 69 123 2.0 5.0 0.00 0.00 0.00 64 1014.3
20260905155603 67 140 3.0 6.0 0.00 0.00 0.00 66 1014.3
20260905155104 67 141 4.0 7.0 0.00 0.00 0.00 65 1014.4
20260905154103 66 91 4.0 8.0 0.00 0.00 0.00 68 1014.5
20260905153604 65 174 2.0 7.0 0.00 0.00 0.00 69 1014.4
20260905153104 65 85 3.0 6.0 0.00 0.00 0.00 69 1014.4
20260905152103 63 135 3.0 6.0 0.00 0.00 0.00 72 1014.4
20260905151604 63 87 2.0 5.0 0.00 0.00 0.00 73 1014.4
20260905151104 62 99 2.0 3.0 0.00 0.00 0.00 73 1014.4
20260905150603 61 51 2.0 3.0 0.00 0.00 0.00 75 1014.3
20260905145106 60 103 2.0 5.0 0.00 0.00 0.00 79 1014.1
20260905144105 59 103 1.0 3.0 0.00 0.00 0.00 81 1014.1
20260905143605 59 99 2.0 3.0 0.00 0.00 0.00 82 1014.0
20260905143105 58 94 2.0 3.0 0.00 0.00 0.00 83 1013.9
20260905142606 58 96 2.0 3.0 0.00 0.00 0.00 83 1013.8
20260905141605 57 114 2.0 3.0 0.00 0.00 0.00 84 1013.7
20260905140105 57 106 1.0 2.0 0.00 0.00 0.00 84 1013.6
20260905134105 57 90 1.0 1.0 0.00 0.00 0.00 84 1013.4
20260905133605 57 93 1.0 1.0 0.00 0.00 0.00 83 1013.4
20260905132605 58 89 1.0 2.0 0.00 0.00 0.00 83 1013.3
20260905132105 58 65 1.0 2.0 0.00 0.00 0.00 83 1013.2
20260905131605 58 63 2.0 2.0 0.00 0.00 0.00 83 1013.2
20260905130605 58 70 2.0 2.0 0.00 0.00 0.00 83 1013.1
20260905125605 58 78 1.0 2.0 0.00 0.00 0.00 83 1013.2
20260905125105 58 88 1.0 1.0 0.00 0.00 0.00 83 1013.2
20260905124606 58 76 1.0 1.0 0.00 0.00 0.00 83 1013.2
20260905124105 58 85 1.0 1.0 0.00 0.00 0.00 83 1013.2
20260905123605 58 63 1.0 1.0 0.00 0.00 0.00 83 1013.2